Regional Weather Roundup
Issued by NWS Charleston, SC

Current Version | Previous Version | Graphics & Text | Print | Product List | Glossary On
Versions: 1 2 3 4 5 6 7 8 9 10 11 12 13 14 15 16 17 18 19 20 21 22 23 24 25 26 27 28 29 30 31 32 33 34 35 36 37 38 39 40 41 42 43 44 45 46 47 48 49 50
000 ASUS42 KCHS 210625 RWRCHS REGIONAL WEATHER ROUNDUP NATIONAL WEATHER SERVICE CHARLESTON SC 100 AM EST FRI NOV 21 2014 NOTE: "FAIR" INDICATES FEW OR NO CLOUDS BELOW 12,000 FEET WITH NO SIGNIFICANT WEATHER AND/OR OBSTRUCTIONS TO VISIBILITY. NOT ALL STATIONS ARE QUALITY CONTROLLED BY THE NATIONAL WEATHER SERVICE. USE DATA WITH CAUTION...ESPECIALLY DEWPOINT OBSERVATIONS. SCZ027-030-031-034>040-042>050-210700- ...SOUTH CAROLINA... CITY SKY/WX TMP DP RH WIND PRES REMARKS N CHARLESTON MOCLDY 48 36 63 W6 30.25R 6HR MIN TEMP: 48; 6HR MAX TEMP: 53; WATERFRONT PRK N/A 50 N/A N/A W6 N/A FORT JOHNSON NOT AVBL JOHNS ISLAND CLEAR 48 39 71 W7 30.25F PINOPOLIS N/A 52 39 62 W12 30.15F MONCKS CORNER FAIR 50 41 71 CALM 30.24R SUMMERVILLE FAIR 43 37 81 CALM 30.26R BEAUFORT MCAS PTCLDY 49 36 61 W6 30.26S 6HR MIN TEMP: 43; 6HR MAX TEMP: 50; BEAUFORT ARPT FAIR 48 37 66 W7 30.26S HILTON HEAD IS CLEAR 50 37 62 SW6 30.27S GEORGETOWN NOT AVBL WALTERBORO MOCLDY 48 34 57 W6 30.27R ORANGEBURG MOCLDY 44 36 73 SW3 30.25R 6HR MIN TEMP: 42; 6HR MAX TEMP: 51; BARNWELL N/A 41 37 87 W5 30.27R AIKEN FAIR 43 34 70 SW3 30.29R MANNING NOT AVBL KINGSTREE NOT AVBL COLUMBIA PTCLDY 43 33 68 W5 30.24R 6HR MIN TEMP: 42; 6HR MAX TEMP: 52; SUMTER PTCLDY 40 37 88 SW2 30.21R 6HR MIN TEMP: 40; 6HR MAX TEMP: 54; FLORENCE PTCLDY 47 34 60 W6 30.21R 6HR MIN TEMP: 45; 6HR MAX TEMP: 54; MYRTLE BEACH MOCLDY 50 36 57 W9 30.22S N MYRTLE BEACH MOCLDY 50 37 61 W6 30.21R 6HR MIN TEMP: 50; 6HR MAX TEMP: 54; $$ GAZ063-065-086>088-099>101-113>116-118-119-134-136>141-150-210700- ...GEORGIA... CITY SKY/WX TMP DP RH WIND PRES REMARKS SAVANNAH ARPT CLEAR 41 33 73 W3 30.27S 6HR MIN TEMP: 39; 6HR MAX TEMP: 53; HUNTER AAF CLEAR 41 34 76 SW3 30.25R 6HR MIN TEMP: 39; 6HR MAX TEMP: 52; FORT STEWART CLEAR 39 34 81 CALM 30.26R 6HR MIN TEMP: 38; 6HR MAX TEMP: 49; STATESBORO NOT AVBL SYLVANIA MOCLDY 44 41 89 CALM 30.27S CLAXTON FAIR 36 36 100 CALM 30.28R THOMSON PTCLDY 38 37 99 CALM 30.31S AUGUSTA-BUSH PTCLDY 38 35 89 CALM 30.27R 6HR MIN TEMP: 36; 6HR MAX TEMP: 50; AUGUSTA-DANIEL PTCLDY 52 35 52 W3 30.27R SWAINSBORO FAIR 43 43 100 CALM 30.27F VIDALIA PTCLDY 46 39 76 CALM 30.27S ALMA CLEAR 36 33 89 CALM 30.26F 6HR MIN TEMP: 36; 6HR MAX TEMP: 46; WAYCROSS CLEAR 39 37 94 CALM 30.28R JESUP FAIR 36 36 100 CALM 30.28R BRUNSWICK CLEAR 37 36 93 CALM 30.28S SAINT SIMONS CLEAR 42 39 89 CALM 30.27S 6HR MIN TEMP: 41; 6HR MAX TEMP: 52; $$ SCZ027-028-034-036>038-045-046-048>050-GAZ119-141-210700- ...LAKE AND SUPPLEMENTAL COASTAL OBSERVATIONS... STATION/POSITION TIME TEMP WIND PRES WAVE SWELL AIR SEA DIR/SP/G HT/PER HT/PER/DIR (UTC) (F) (DEG/KT/KT) (MB) (FT/S) (FT/S/D) UPR LAKE MARION NOT AVBL WINYAH BAY 0600 51 270/ 6 1023.0S LAKE MURRAY 0500 53 270/ 14/ 16 1022.7R ACE BASIN NERRS 0600 44 CALM 1024.0S FORT PULASKI 0600 51 230/ 5/ 6 1025.2R SAPELO ISLAND NOT AVBL $$ ANZ835-935-AMZ111-154-330-350-352-354-374-450-454-472-210700- ...C-MAN AND BUOY OBSERVATIONS... STATION/POSITION TIME TEMP WIND PRES WAVE SWELL AIR SEA DIR/SP/G HT/PER HT/PER/DIR (UTC) (F) (DEG/KT/KT) (MB) (FT/S) (FT/S/D) FOLLY BEACH CMAN 0600 49 260/ 6/ 8 1024.6S BUOY 41004 0600 63 72 270/ 19/ 25 1023.3S 5/ 5 2/15 BUOY 41008 0600 60 64 290/ 12/ 14 1024.8F 1/ 8 2/100/ 8 5E ST. MARYS GA 0600 62 N/A 1/ 8 FRYING PAN BUOY 0600 62 64 260/ 21/ 27 1023.0F 7/ 6 BUOY 41025 0600 61 260/ 21/ 25 1020.5R 7/ 8 CAPE LOOKOUT NC 0600 58 270/ 20/ 25 1021.2R BUOY 41002 0452 67 73 290/ 14/ 17 1023.3 5/ 6 2/110/ 8 BUOY 41010 0600 70 78 40/ 12/ 14 1023.1F 4/ 8 3/110/ 8 BUOY 41012 NOT AVBL ST AUGUSTINE FL 0600 56 330/ 6/ 6 1025.3F CAPERS NEARSHORE 0500 56 260/ 16/ 17 N/A FRIPP NEARSHORE NOT AVBL $$

USA.gov is the U.S. government's official web portal to all federal, state and local government web resources and services.